LFKCLFKJ

Guest
Details From LFKC - St Catherine
To LFKJ - Napoleon Bonaparte
Flight Number -
Tags generated
Created
Modified
Stats Distance 37 nm / 68 km
Max Altitude 1,800 ft / 549 m
Waypoints 3
Social Downloads 11
Likes 0
Share VATSIM

Download

Looking for another format? Having issues loading an existing format? Contact us
Advertisement - Login to hide

Notes

Basic altitude profile: - Ascent Rate: 500ft/min - Ascent Speed: 250kts - Cruise Altitude: 35000ft - Cruise Speed: 380kts - Descent Rate: 1500ft/min - Descent Speed: 250kts

Route

LFKC VICCO LFKJ

ID Type Via Altitude Latitude Longitude Leg Dist Tot Dist Heading (true) Name
O LFKC APT - 0 ft / 0 m 42.53076˚ 8.79293˚ - 0 nm - St Catherine
VICCO FIX - 1,800 ft / 549 m 42.13944˚ 8.81583˚ 23 nm 23 nm 178° / 178° -
O LFKJ APT - 0 ft / 0 m 41.92289˚ 8.79959˚ 13 nm 36 nm 183° / 183° Napoleon Bonaparte

Altitude Profile

Advertisement - Login to hide

LFKC

Details ICAO LFKC (CLY)
Name St Catherine
Region France
Timezone Europe/Paris (UTC+1.0)
Stats Elevation 208 ft / 63 m (AMSL)
Location 42.530762° 8.792925°
Runways 1
Magnetic Variation 2.343° E

METAR

LFKC 180630Z AUTO 20007KT CAVOK 03/M04 Q1023 NOSIG

Decode

TAF

TAF LFKC 180200Z 1803/1903 19006KT 9999 FEW030 PROB30 TEMPO 1812/1819 SHRA SCT050TCU TX12/1813Z TN02/1804Z

Decode

Departure Runways

ID Width Length Bearing (true) Bearing (mag) Surface Threshold Offset Overrun Length
18 131 ft / 40 m 7,596 ft / 2,315 m 179.60° 177.26° Concrete 0 ft / 0 m 0 ft / 0 m
36 131 ft / 40 m 7,596 ft / 2,315 m 359.60° 357.26° Concrete 656 ft / 200 m 0 ft / 0 m

LFKJ

Details ICAO LFKJ (AJA)
Name Napoleon Bonaparte
Region France
Timezone Europe/Paris (UTC+1.0)
Stats Elevation 18 ft / 5 m (AMSL)
Location 41.922886° 8.799587°
Runways 2
Magnetic Variation 2.330° E

METAR

LFKJ 180630Z AUTO 04007KT 010V070 CAVOK 01/M04 Q1024 NOSIG

Decode

TAF

TAF LFKJ 180200Z 1803/1903 05005KT 9999 FEW040 TEMPO 1812/1817 SCT030TCU BKN070

Decode

Destination Runways

ID Width Length Bearing (true) Bearing (mag) Surface Threshold Offset Overrun Length
02 180 ft / 55 m 7,899 ft / 2,408 m 24.94° 22.61° Asphalt 0 ft / 0 m 164 ft / 50 m
10 98 ft / 30 m 3,447 ft / 1,051 m 94.35° 92.02° Concrete 0 ft / 0 m 164 ft / 50 m
20 180 ft / 55 m 7,899 ft / 2,408 m 204.95° 202.62° Asphalt 745 ft / 227 m 230 ft / 70 m
28 98 ft / 30 m 3,447 ft / 1,051 m 274.36° 272.03° Concrete 213 ft / 65 m 0 ft / 0 m

Approach Navaids

Runway Type Ident Frequency Range Bearing (true) Bearing (mag) Slope Elevation
02 Localiser AC 110.30 MHz 27 nm / 50 km 24.92° 22.59° - 18 ft / 5 m (AMSL)
02 Glidescope AC 110.30 MHz 27 nm / 50 km 24.92° 22.59° 3.00° 18 ft / 5 m (AMSL)
02 DME AC 110.30 MHz 27 nm / 50 km - - - 18 ft / 5 m (AMSL)

Popular Alternatives